Weather History for KINT - January, 2013

Change the Weather History Date:

Tuesday, January 8, 2013

  Actual Average Record
Temperature  
Mean Temperature 40 °F -  
Max Temperature 51 °F 49 °F - (-1)
Min Temperature 28 °F 32 °F - (-1)
Degree Days  
Heating Degree Days 26    
Moisture  
Dew Point 33 °F    
Average Humidity 72    
Maximum Humidity 89    
Minimum Humidity 52    
Precipitation  
Precipitation 0.00 in - - ()
Sea Level Pressure  
Sea Level Pressure 30.41 in    
Wind  
Wind Speed 1 mph (NW)    
Max Wind Speed 5 mph    
Max Gust Speed -    
Visibility 9 miles    
Events      
Averages and records for this station are not official NWS values.
T = Trace of Precipitation, MM = Missing Value Source: NWS Daily Summary

Daily Weather History Graph

Daily Weather History Graph

Search for Another Location

Airport or City:

Trip Planner

Search our weather history database for the weather conditions in past years. The results will help you decide how hot, cold, wet, or windy it might be!

Date:

Astronomy

Jan. 08, 2013 Rise Set
Actual Time 7:32 AM EST 5:23 PM EST
Civil Twilight 7:04 AM EST 5:51 PM EST
Nautical Twilight 6:32 AM EST 6:23 PM EST
Astronomical Twilight 6:01 AM EST 6:54 PM EST
Moon 4:04 AM EST (1/8) 2:24 PM EST (1/8)
Length of Visible Light 10h 47m
Length of Day
9h 51m
Waning Crescent, 14% of the Moon is Illuminated
Jan 8
Waning Crescent
Jan 11
New
Jan 18
First Quarter
Jan 26
Full
Feb 3
Last Quarter

Hourly Weather History & Observations

Time (EST) Temp. Windchill Dew Point Humidity Pressure Visibility Wind Dir Wind Speed Gust Speed Precip Events Conditions
12:54 AM 34.0 °F - 27.0 °F 75% 30.43 in 10.0 mi Calm Calm - N/A   Clear
1:54 AM 30.0 °F - 26.1 °F 85% 30.41 in 10.0 mi Calm Calm - N/A   Clear
2:54 AM 28.9 °F - 26.1 °F 89% 30.41 in 9.0 mi Calm Calm - N/A   Clear
3:54 AM 30.9 °F - 26.1 °F 82% 30.40 in 10.0 mi Calm Calm - N/A   Clear
4:54 AM 28.0 °F - 25.0 °F 88% 30.40 in 8.0 mi Calm Calm - N/A   Partly Cloudy
5:54 AM 30.0 °F 25.2 °F 27.0 °F 88% 30.40 in 8.0 mi NNW 4.6 mph - N/A   Clear
6:54 AM 33.1 °F - 28.0 °F 82% 30.42 in 9.0 mi Calm Calm - N/A   Overcast
7:54 AM 32.0 °F - 28.9 °F 88% 30.45 in 7.0 mi Calm Calm - N/A   Overcast
8:01 AM 33.8 °F - 28.4 °F 81% 30.43 in 7.0 mi Calm Calm - N/A   Overcast
8:32 AM 33.8 °F - 28.4 °F 81% 30.44 in 7.0 mi Calm Calm - N/A   Mostly Cloudy
8:54 AM 35.1 °F - 30.0 °F 82% 30.45 in 8.0 mi Calm Calm - N/A   Mostly Cloudy
9:18 AM 35.6 °F - 30.2 °F 81% 30.45 in 8.0 mi Calm Calm - N/A   Mostly Cloudy
9:45 AM 39.2 °F 37.0 °F 32.0 °F 75% 30.45 in 8.0 mi East 3.5 mph - N/A   Scattered Clouds
9:54 AM 41.0 °F - 32.0 °F 70% 30.46 in 9.0 mi Calm Calm - N/A   Partly Cloudy
10:54 AM 46.0 °F - 32.0 °F 58% 30.45 in 10.0 mi Calm Calm - N/A   Clear
11:54 AM 48.0 °F - 32.0 °F 54% 30.43 in 10.0 mi Variable 3.5 mph - N/A   Mostly Cloudy
12:11 PM 48.2 °F - 32.0 °F 54% 30.41 in 10.0 mi Calm Calm - N/A   Overcast
12:54 PM 48.9 °F - 32.0 °F 52% 30.41 in 10.0 mi West 3.5 mph - N/A   Overcast
1:54 PM 50.0 °F - 34.0 °F 54% 30.39 in 10.0 mi WSW 3.5 mph - N/A   Overcast
2:54 PM 51.1 °F - 35.1 °F 54% 30.39 in 10.0 mi West 4.6 mph - N/A   Overcast
3:54 PM 50.0 °F - 36.0 °F 59% 30.38 in 10.0 mi Calm Calm - N/A   Overcast
4:46 PM 51.8 °F - 37.4 °F 58% 30.38 in 10.0 mi Calm Calm - N/A   Overcast
4:54 PM 51.1 °F - 37.0 °F 59% 30.40 in 10.0 mi Calm Calm - N/A   Overcast
5:54 PM 48.9 °F - 37.9 °F 66% 30.39 in 10.0 mi Calm Calm - N/A   Overcast
6:54 PM 48.9 °F - 37.9 °F 66% 30.40 in 10.0 mi Calm Calm - N/A   Overcast
7:54 PM 48.9 °F - 37.9 °F 66% 30.40 in 10.0 mi Calm Calm - N/A   Overcast
8:54 PM 46.9 °F - 37.9 °F 71% 30.41 in 10.0 mi Calm Calm - N/A   Mostly Cloudy
9:29 PM 44.6 °F - 37.4 °F 76% 30.40 in 10.0 mi Calm Calm - N/A   Mostly Cloudy
9:54 PM 45.0 °F - 37.9 °F 76% 30.40 in 10.0 mi Calm Calm - N/A   Overcast
10:06 PM 44.6 °F - 37.4 °F 76% 30.40 in 10.0 mi Calm Calm - N/A   Mostly Cloudy
10:54 PM 44.1 °F - 37.0 °F 76% 30.41 in 10.0 mi Calm Calm - N/A   Clear
11:47 PM 42.8 °F 41.1 °F 37.4 °F 81% 30.40 in 9.0 mi NNW 3.5 mph - N/A   Mostly Cloudy
11:54 PM 42.8 °F - 37.4 °F 81% 30.41 in 9.0 mi Calm Calm - N/A   Mostly Cloudy